Wind_Speed
121 121 121 121 122 122 122 122 121 121 121 121 122 122 122 123 124 126 128 130 131 132 132 131 129 128 127 126 125 124 123 122 121 120 118 118 117 117 116 116 115 114 113 113 112 111 111 110 110 109 108 107 106 105 105 104 103 103 102 102 101 100 100 99 99 98 97 97 96 96 95 95 94 94 93 93 92 92 91 91 91 92 92 93 93 93
121 121 121 121 121 121 121 121 121 120 121 121 121 121 121 122 123 124 126 128 129 130 131 130 129 128 127 126 125 125 124 123 122 121 119 118 118 117 117 116 115 115 114 113 112 111 111 110 109 109 108 107 106 105 105 104 103 103 102 101 101 100 100 99 99 99 98 98 97 97 96 96 95 95 94 94 93 92 92 92 92 92 93 93 93 93
120 121 120 120 119 119 120 119 118 118 118 119 119 119 119 120 121 122 123 125 126 128 129 129 128 127 126 125 125 124 124 123 122 121 120 119 118 117 117 116 116 115 114 113 112 111 111 110 109 108 108 107 106 105 104 104 103 102 102 101 101 101 100 99 99 99 98 98 98 97 97 96 96 95 95 94 94 93 93 92 92 93 93 93 93 93
118 118 118 117 116 116 116 115 115 115 115 115 115 116 116 117 117 118 119 121 123 124 125 126 126 125 125 124 123 123 123 122 122 121 120 119 118 117 117 116 116 115 114 113 112 111 111 110 109 108 107 107 106 105 104 103 103 102 102 101 101 100 100 99 99 99 98 98 98 98 97 97 97 96 96 95 94 94 93 93 93 93 93 93 93 93
114 114 113 112 111 111 110 110 110 110 110 110 111 111 111 112 113 114 115 116 118 119 121 122 122 122 121 121 121 121 120 120 120 120 119 118 117 117 116 116 115 115 114 113 112 111 111 110 109 108 107 106 106 105 104 103 102 102 101 101 101 100 100 99 99 99 98 98 98 98 98 97 97 97 96 96 95 94 94 94 93 93 93 93 93 93
108 108 107 107 106 105 105 104 104 104 105 105 105 105 106 106 107 108 109 111 112 114 115 116 117 117 117 117 117 117 117 117 117 117 117 116 116 115 115 115 114 114 114 113 112 111 110 110 109 108 107 106 106 105 104 103 102 102 101 101 101 100 100 99 99 98 98 98 98 98 98 98 97 97 97 96 95 95 94 94 94 94 94 93 93 92
102 102 101 101 100 100 99 99 99 99 99 99 99 99 100 101 101 102 104 105 106 108 109 110 111 111 112 112 112 112 113 113 113 114 114 114 113 113 113 113 113 113 112 112 111 111 110 109 109 108 107 106 105 105 104 103 102 102 101 101 101 100 100 99 98 98 98 98 98 98 97 97 97 97 96 96 96 95 95 94 94 94 94 93 93 92
97 96 96 95 95 94 94 93 93 93 94 94 94 94 94 95 96 97 98 99 101 102 103 104 105 105 106 106 107 107 108 108 109 109 110 110 110 110 110 110 110 110 110 110 110 109 109 108 108 107 107 106 105 105 104 103 102 102 101 101 101 100 100 99 98 98 97 97 97 97 97 97 97 97 96 96 96 95 95 94 94 94 94 93 93 92
92 91 91 90 90 90 89 89 88 89 89 89 89 89 90 91 91 92 93 94 95 96 98 98 99 100 100 101 101 102 102 103 103 104 105 105 106 106 107 107 107 108 108 108 108 108 108 107 107 106 106 105 105 104 104 103 102 102 101 101 100 100 99 99 98 98 97 97 97 97 97 97 96 97 96 96 95 95 95 94 94 94 93 93 92 92
87 87 87 86 86 86 85 85 85 85 85 85 85 86 86 87 87 88 89 89 90 92 93 94 94 95 95 95 96 96 97 97 98 99 100 101 101 102 102 103 104 104 105 105 106 106 106 106 105 105 105 104 104 103 103 102 102 101 101 101 100 100 99 98 98 97 97 97 96 96 96 96 96 96 96 96 95 95 95 94 94 94 93 93 92 92
84 83 83 83 82 82 82 82 82 81 81 82 82 82 83 83 84 84 85 85 86 88 89 89 90 90 91 91 91 91 92 92 93 94 95 96 96 97 98 99 100 100 101 102 103 103 103 104 104 104 103 103 103 102 102 102 101 101 100 100 100 99 98 98 97 97 96 96 96 96 96 96 96 96 95 95 95 95 94 94 94 93 93 92 92 91
80 80 80 80 79 79 79 79 79 79 79 79 79 80 80 80 81 81 82 82 83 84 85 86 86 87 87 87 87 87 87 88 89 90 91 91 92 93 94 95 95 97 98 98 99 100 100 101 101 101 101 101 101 101 101 101 100 100 99 99 99 98 98 97 97 96 96 95 95 95 95 95 95 95 95 95 94 94 94 94 94 93 93 92 92 91
77 77 77 76 76 76 76 76 76 76 76 76 77 77 77 77 78 78 79 79 80 81 81 82 83 83 84 84 84 84 84 84 85 86 87 87 88 88 89 90 92 93 94 95 96 97 97 98 98 99 99 99 99 99 99 99 99 99 98 98 97 97 97 96 96 96 95 95 95 94 94 94 94 94 94 94 94 94 94 93 93 93 92 92 91 91
75 74 74 74 74 74 74 74 74 74 74 74 74 74 75 75 75 75 76 76 77 78 78 79 80 80 81 81 81 81 81 81 82 82 83 84 84 85 86 87 88 89 90 91 92 93 94 95 96 96 96 96 97 97 97 97 97 97 97 96 96 96 96 95 95 95 94 94 94 94 94 94 93 93 93 93 93 93 93 93 93 92 92 92 91 90
72 72 71 71 71 71 71 72 71 71 71 72 72 72 72 72 72 73 73 74 74 75 75 76 77 77 78 78 78 78 78 79 79 79 80 80 81 82 82 83 84 85 87 88 89 90 91 92 93 93 94 94 94 95 95 95 95 95 95 95 94 94 94 94 94 94 93 93 93 93 93 93 93 93 93 93 93 93 93 92 92 92 92 91 91 90
70 70 69 69 69 69 69 69 69 69 69 70 70 70 70 70 70 70 71 71 72 72 72 73 74 74 75 75 76 76 76 76 76 77 77 77 78 79 79 80 81 82 83 85 86 87 88 89 90 90 91 91 92 92 93 93 93 93 93 93 93 93 93 93 93 92 92 92 91 91 92 92 92 92 92 92 92 92 92 92 92 91 91 91 90 90
68 68 68 68 68 68 68 68 67 67 67 68 68 68 68 68 68 68 68 69 69 70 70 70 71 72 72 73 73 73 73 73 74 74 74 75 76 76 77 77 78 80 81 82 83 84 85 86 87 88 88 89 89 90 90 90 90 91 91 91 91 91 91 91 91 91 91 90 90 90 90 91 91 91 91 91 91 91 91 91 91 91 90 90 90 89
66 66 66 66 67 67 66 66 66 66 66 66 66 65 65 66 66 66 66 67 67 67 67 68 68 69 70 70 71 71 71 71 71 71 72 72 73 74 74 75 76 77 78 80 81 82 83 84 84 85 86 86 87 87 88 88 88 88 89 89 89 89 90 90 90 89 89 89 89 89 89 90 90 90 90 90 90 90 90 90 90 90 90 89 89 89
65 65 65 65 65 65 65 65 64 64 64 63 63 63 63 63 64 64 64 64 64 65 65 65 66 67 67 68 69 69 69 69 69 69 70 71 71 72 72 73 74 75 76 77 78 79 80 81 82 82 83 84 84 85 85 86 86 86 87 87 88 88 88 88 88 88 88 88 88 88 88 89 89 89 89 89 89 89 89 89 89 89 89 89 89 88
64 64 63 63 63 63 63 63 63 62 62 61 61 61 61 61 61 62 62 62 62 62 62 63 63 64 65 66 66 66 66 67 67 68 68 69 69 70 70 71 72 73 74 75 76 77 78 79 79 80 81 81 82 82 83 84 84 85 85 85 86 86 86 86 86 87 86 87 87 87 87 88 88 88 88 88 88 89 89 89 89 89 89 89 88 88
62 62 62 62 61 61 61 61 61 60 60 59 59 59 59 59 59 59 60 60 60 60 60 60 61 62 63 63 64 64 64 65 65 66 66 67 68 68 69 69 70 71 72 73 74 75 76 76 77 78 79 79 80 80 81 82 82 83 83 84 84 84 84 85 85 85 85 85 86 86 86 87 87 87 87 87 87 88 88 88 88 88 88 88 88 88
61 61 61 61 60 59 59 59 58 58 58 57 57 57 57 57 57 57 58 58 58 58 58 59 59 60 60 61 62 62 63 63 64 64 65 65 66 67 67 67 68 69 70 71 72 73 73 74 75 76 77 77 78 78 79 80 80 81 81 82 82 82 83 83 83 83 84 84 84 85 85 85 86 86 86 86 87 87 87 88 88 88 88 88 88 88
59 60 60 59 59 58 57 57 56 55 55 55 54 54 55 55 55 56 56 56 56 56 56 57 57 58 58 59 60 60 61 61 62 63 63 64 64 65 65 65 66 67 68 69 70 70 71 72 73 74 74 75 76 77 77 78 78 79 79 80 80 81 81 81 82 82 83 83 83 84 84 84 85 85 85 86 86 86 87 87 87 87 87 88 87 87
56 57 58 58 57 57 56 55 54 53 53 52 52 52 53 53 54 54 54 54 54 54 54 55 55 56 57 57 58 58 59 60 60 61 61 62 63 63 63 64 64 65 67 67 68 68 69 70 71 72 73 73 74 75 75 76 77 77 78 78 79 79 80 80 81 81 81 82 82 82 83 83 84 84 84 85 85 86 86 86 87 87 87 87 87 87
53 54 55 56 56 55 55 54 53 52 51 50 50 50 50 51 51 52 53 53 53 52 52 53 53 54 55 55 56 56 57 58 58 58 59 60 61 61 61 62 62 64 65 65 66 67 67 68 69 70 71 72 72 73 74 74 75 76 76 77 77 78 78 79 79 80 80 81 81 82 82 83 83 83 84 84 85 85 86 86 86 87 87 87 87 87
51 52 52 53 53 53 53 53 52 51 50 49 48 48 48 49 49 50 51 51 51 51 50 51 51 52 53 53 54 54 55 55 56 56 57 58 59 59 60 60 61 62 63 64 64 65 65 66 67 68 69 70 71 71 72 73 73 74 75 76 76 77 77 78 79 79 80 80 81 81 82 82 83 83 84 84 85 85 86 86 86 87 87 87 87 87
50 50 50 50 51 51 51 51 51 50 49 48 47 46 46 47 47 48 49 49 49 49 49 49 49 50 50 51 51 52 52 53 53 54 55 55 56 57 58 58 59 60 61 61 62 63 63 64 65 66 67 68 69 70 71 71 72 73 74 74 75 76 76 77 78 78 79 80 80 81 81 82 82 83 83 84 84 85 85 86 86 87 87 87 87 88
48 48 48 48 48 49 49 49 49 48 48 47 46 45 45 45 46 46 47 48 47 47 47 47 47 48 48 48 49 49 50 51 51 52 53 53 55 56 56 57 57 58 59 59 60 61 62 63 64 65 66 67 68 69 69 70 71 72 73 74 74 75 76 76 77 78 78 79 80 80 81 82 82 83 83 84 84 85 85 86 86 87 87 87 87 88
47 47 46 46 46 47 47 47 47 47 46 46 45 44 44 44 44 45 45 46 46 46 46 46 46 46 46 46 47 47 48 49 50 50 51 52 53 54 55 55 55 56 57 58 58 59 61 62 63 64 65 66 67 68 69 70 70 71 72 73 74 74 75 76 77 77 78 79 80 80 81 82 82 83 83 84 84 85 86 86 86 87 87 87 87 88
45 45 45 45 45 45 45 45 45 45 45 44 44 43 43 42 43 43 44 44 44 44 44 44 44 44 44 44 45 46 47 48 48 49 49 50 51 52 53 53 54 55 55 56 57 58 60 61 62 63 64 65 66 67 68 69 70 71 72 73 73 74 75 76 77 77 78 79 79 80 81 81 82 83 83 84 85 85 86 86 87 87 87 87 87 88
44 44 44 44 43 43 43 44 44 44 43 43 43 42 42 41 41 42 42 42 42 43 43 43 43 42 43 43 44 45 45 46 47 47 48 49 50 51 51 52 53 54 54 55 57 58 60 61 62 63 64 65 66 67 68 69 70 71 72 72 73 74 75 76 76 77 78 79 79 80 81 81 82 83 83 84 85 85 86 86 87 87 87 87 87 87
43 43 42 42 42 42 42 42 42 42 42 42 41 41 41 40 40 40 40 41 41 41 41 41 41 41 42 42 43 43 44 45 45 46 47 48 49 50 50 51 52 53 54 55 56 58 59 60 61 62 63 64 66 67 68 69 70 70 71 72 73 74 75 76 76 77 78 78 79 80 81 81 82 83 83 84 84 85 86 86 86 86 87 87 87 87
42 41 41 41 41 40 40 40 40 41 41 40 40 40 40 40 39 39 39 39 39 39 40 40 40 40 40 41 41 42 43 43 44 45 46 47 48 49 49 50 51 52 53 55 56 57 59 60 61 62 63 64 65 66 67 68 69 70 71 72 73 74 75 75 76 77 77 78 79 79 80 81 81 82 83 83 84 85 85 86 86 86 86 86 86 87
40 40 40 39 39 39 39 39 39 39 39 39 39 39 39 39 38 38 38 38 38 38 38 38 39 39 39 40 40 41 42 42 43 44 44 46 47 48 48 50 51 52 53 54 55 57 58 59 60 61 62 63 64 65 66 67 68 69 70 71 72 73 74 74 75 76 77 77 78 79 79 80 81 81 82 83 83 84 85 85 85 85 85 86 86 86
39 38 38 38 38 38 38 38 38 38 38 38 38 38 38 38 38 38 37 37 37 37 37 37 38 38 38 38 39 40 40 41 41 42 43 44 46 47 47 48 50 51 52 53 54 55 57 58 59 60 61 62 63 64 65 66 67 68 69 70 71 72 73 74 74 75 76 76 77 78 79 79 80 81 81 82 83 83 84 84 85 85 85 85 85 85
37 37 37 37 37 37 37 37 37 37 37 37 37 37 37 37 37 37 37 37 37 37 37 37 37 37 37 38 38 39 39 40 40 41 42 43 44 45 46 48 48 49 51 52 53 54 55 56 58 59 60 61 62 63 64 65 66 67 68 69 70 71 72 72 73 74 75 76 77 77 78 79 79 80 81 82 82 83 83 84 84 84 85 85 85 85
36 36 36 36 36 36 36 36 36 36 36 36 36 36 36 36 36 36 36 36 36 36 36 36 36 36 37 37 38 38 38 39 40 41 42 43 44 45 46 47 48 48 50 51 52 53 54 55 56 57 59 60 61 62 63 64 65 66 67 68 69 70 71 72 72 73 74 75 76 77 77 78 79 80 80 81 82 82 83 83 84 84 84 84 84 84
35 35 35 35 35 35 35 35 35 35 35 35 35 35 35 35 35 36 36 36 36 36 36 36 36 36 36 37 37 37 38 38 39 40 41 42 43 44 45 46 47 48 49 50 51 52 53 55 56 57 58 60 61 61 62 63 64 65 66 67 68 69 70 71 72 73 74 75 76 76 77 78 79 79 80 81 81 82 82 83 83 83 84 84 84 84
34 34 34 34 34 34 34 34 34 34 34 34 34 34 34 34 35 35 35 35 35 35 35 35 35 36 36 36 36 37 37 38 39 39 40 41 42 43 44 45 46 47 48 49 50 51 53 54 55 57 58 59 60 61 62 62 63 64 65 66 67 69 70 71 71 72 73 74 75 76 77 77 78 79 80 80 81 81 82 82 83 83 83 83 83 83
33 33 33 33 33 33 33 34 34 34 33 33 33 33 33 34 34 34 34 35 35 35 35 35 35 35 35 36 36 36 37 37 38 39 39 40 41 42 43 44 45 46 47 48 49 50 52 53 55 56 57 58 59 60 61 62 63 64 64 66 67 68 69 70 71 72 73 74 75 76 76 77 77 78 79 79 80 80 81 81 81 81 81 82 82 82
32 32 32 32 32 32 33 33 33 33 33 33 33 33 33 33 33 33 34 34 34 35 35 35 35 35 35 35 35 36 36 36 37 38 38 39 40 41 42 43 44 45 46 47 48 49 51 52 53 55 56 57 58 59 60 61 61 62 63 65 66 67 67 68 69 71 71 72 73 74 75 75 76 77 77 78 78 78 79 79 79 80 80 80 80 81
31 31 31 31 31 32 32 32 32 32 32 32 32 32 32 32 32 33 33 33 34 34 34 35 35 35 35 35 35 35 35 36 36 37 37 38 39 40 41 42 42 43 44 45 47 48 49 51 52 53 54 55 56 57 58 59 60 61 62 63 64 65 65 67 67 68 70 71 71 72 73 73 74 74 75 75 75 76 76 77 77 78 78 78 78 79
30 30 30 30 30 30 31 31 31 31 32 32 32 32 32 32 32 32 32 33 33 34 34 35 35 35 35 35 35 35 34 35 35 36 36 37 38 38 39 40 41 42 43 44 45 47 48 49 50 51 52 53 54 55 56 57 58 59 60 61 62 63 64 65 65 66 67 68 69 69 70 70 71 71 72 72 72 73 73 74 75 75 76 76 76 77
28 28 28 29 29 29 30 30 30 30 31 31 31 31 31 31 32 32 32 32 32 33 33 34 35 35 35 35 35 34 34 34 34 35 35 36 36 37 38 39 39 40 41 42 44 45 46 47 48 50 51 51 52 54 55 56 57 58 58 59 60 61 62 62 63 63 64 65 66 66 67 67 68 68 68 69 69 70 71 71 72 73 73 74 74 75
28 27 27 27 27 28 28 28 29 29 29 29 30 30 30 31 31 31 31 32 32 32 33 33 34 34 35 35 35 34 34 34 34 34 34 35 35 36 37 37 38 39 40 41 42 43 44 46 47 48 49 50 51 52 54 55 55 56 57 57 58 59 60 60 61 61 62 62 63 64 64 64 65 65 66 66 67 68 68 69 69 70 71 72 72 73
27 27 26 26 26 26 26 27 27 27 27 28 28 29 29 29 30 30 30 30 31 31 31 32 33 33 34 34 34 34 34 34 33 33 34 34 34 35 35 36 37 38 39 40 40 42 43 44 45 46 47 48 50 51 52 53 54 55 55 56 56 57 58 58 59 59 60 60 61 61 62 62 62 63 64 64 65 65 66 66 67 68 69 70 71 71
27 26 26 25 25 24 24 24 24 25 25 26 26 27 27 28 28 29 29 30 30 30 30 31 31 32 33 33 33 33 33 33 33 33 33 33 33 33 34 35 36 36 37 38 39 40 42 43 44 45 46 47 48 50 51 52 52 53 54 54 54 55 56 57 57 58 58 59 59 60 60 60 60 61 61 62 62 63 64 65 66 67 67 68 69 69
26 26 25 25 24 23 23 23 23 23 23 23 24 25 25 26 27 28 28 28 29 29 30 30 30 31 31 32 32 32 32 32 32 32 32 32 32 33 33 34 35 35 36 37 38 39 40 41 42 43 44 46 47 48 49 50 50 51 52 52 53 53 54 55 56 56 56 57 57 58 58 58 59 59 60 60 61 62 63 64 64 65 66 67 68 68
26 25 25 24 23 23 22 22 21 21 21 22 22 23 24 25 26 26 27 28 28 29 29 30 30 30 31 31 31 31 31 31 31 31 31 31 32 32 32 33 34 35 36 36 37 38 39 40 41 42 43 44 45 47 47 48 49 49 50 50 51 52 53 54 54 54 55 56 56 56 57 57 58 58 59 59 60 61 62 63 64 64 65 66 66 67
25 25 24 24 24 23 23 22 22 21 21 21 22 22 23 24 25 25 26 27 27 28 29 29 30 30 31 31 31 31 31 31 31 31 31 31 32 32 33 33 34 35 35 36 37 38 39 39 40 42 43 44 45 46 47 47 48 48 49 50 50 51 52 53 53 54 54 55 55 55 56 56 57 58 58 59 60 60 61 62 63 64 64 65 65 66
25 25 25 24 24 24 24 23 23 22 22 22 22 22 23 23 24 25 26 26 27 28 28 29 30 30 30 31 31 31 31 31 32 32 32 32 32 33 33 34 34 35 36 36 37 38 39 40 41 42 43 44 45 45 46 47 47 48 49 50 50 51 52 52 53 53 54 54 54 55 55 56 57 57 58 58 59 60 60 61 62 63 64 64 64 65
Wind_Direction
275 274 274 273 273 272 271 271 270 269 268 268 267 266 265 265 264 264 263 264 264 264 264 264 264 264 264 264 264 264 264 264 263 263 263 262 262 262 262 261 261 261 261 260 260 260 260 260 260 259 259 259 259 259 258 258 258 258 258 258 258 258 258 258 259 259 259 259 259 259 259 259 259 259 260 260 260 260 260 261 261 261 262 262 262 262
276 275 275 274 273 272 272 271 271 270 269 269 268 267 266 266 265 264 264 264 264 264 264 264 263 263 263 263 264 264 264 263 263 263 263 262 262 262 261 261 261 261 260 260 260 260 260 259 259 259 259 259 258 258 258 258 258 258 258 258 258 258 258 258 258 258 258 258 258 258 258 259 259 259 259 259 259 260 260 260 261 261 261 261 262 262
276 275 275 274 274 273 272 272 271 271 270 269 269 268 267 266 265 265 264 264 264 263 263 263 263 263 263 263 263 263 263 263 263 263 262 262 262 261 261 261 261 260 260 260 260 259 259 259 259 259 259 258 258 258 258 257 257 257 257 257 257 257 257 257 257 257 257 257 257 258 258 258 258 258 259 259 259 259 259 260 260 260 261 261 261 261
276 275 275 274 274 273 273 272 272 271 270 270 269 268 268 267 266 265 265 264 264 263 263 263 263 263 262 262 262 262 262 262 262 262 262 262 261 261 261 261 260 260 260 260 259 259 259 259 259 258 258 258 258 258 257 257 257 257 257 257 256 256 256 256 256 256 256 256 257 257 257 257 257 258 258 258 258 259 259 259 259 260 260 260 261 261
276 275 275 275 274 273 273 272 272 271 270 270 269 268 268 267 266 266 265 264 264 263 263 263 263 262 262 262 261 261 261 261 261 261 261 261 261 260 260 260 260 260 260 259 259 259 259 259 258 258 258 258 257 257 257 257 256 256 256 256 256 256 256 256 255 255 255 256 256 256 256 256 257 257 257 258 258 258 258 259 259 259 260 260 260 260
276 276 275 275 274 274 273 272 272 271 270 270 269 268 268 267 266 266 265 264 264 263 263 263 262 262 262 261 261 261 260 260 260 260 260 260 260 260 260 260 260 259 259 259 259 259 258 258 258 258 258 257 257 257 257 256 256 256 256 256 255 255 255 255 255 255 255 255 255 255 256 256 256 256 257 257 257 258 258 258 259 259 259 259 260 260
276 276 275 275 274 274 273 272 272 271 270 270 269 268 268 267 266 266 265 264 264 263 263 263 262 262 262 261 261 260 260 260 260 260 260 260 259 259 259 259 259 259 259 259 259 258 258 258 258 257 257 257 257 257 256 256 256 255 255 255 255 255 255 254 254 254 254 254 254 255 255 255 255 256 256 256 257 257 257 258 258 258 259 259 259 259
276 276 275 275 274 273 273 272 272 271 270 270 269 269 268 267 266 266 265 265 264 264 263 263 263 262 262 261 261 260 260 260 259 259 259 259 259 259 259 258 258 258 258 258 258 258 258 257 257 257 257 256 256 256 256 255 255 255 255 255 254 254 254 254 254 254 254 254 254 254 254 255 255 255 256 256 256 256 257 257 258 258 258 258 259 259
276 276 275 275 274 274 273 272 272 271 270 270 269 269 268 267 266 266 265 265 264 264 264 263 263 262 262 261 261 260 260 259 259 259 259 258 258 258 258 258 258 257 257 257 257 257 257 257 256 256 256 256 256 255 255 255 255 254 254 254 254 254 253 253 253 253 253 253 253 253 254 254 254 255 255 255 255 256 256 257 257 258 258 258 258 258
276 276 275 275 274 274 273 273 272 271 271 270 269 269 268 267 267 266 265 265 265 264 264 264 263 263 262 261 261 260 260 260 259 259 258 258 258 257 257 257 257 257 256 256 256 256 256 256 256 255 255 255 255 255 254 254 254 254 254 253 253 253 253 253 253 253 253 253 253 253 253 253 254 254 254 255 255 255 256 256 257 257 257 258 258 258
276 276 275 275 275 274 273 273 272 271 271 270 269 269 268 267 267 266 266 265 265 264 264 264 263 263 262 262 261 261 260 260 259 259 258 258 257 257 256 256 256 256 256 255 255 255 255 255 254 254 254 254 254 254 253 253 253 253 253 253 253 252 252 252 252 252 252 252 252 252 253 253 253 253 254 254 254 255 255 256 256 256 257 257 257 257
277 276 276 275 275 274 274 273 272 272 271 270 270 269 268 267 267 266 266 265 265 265 264 264 264 263 263 262 262 261 260 260 259 259 258 257 257 256 256 256 255 255 255 254 254 254 254 254 253 253 253 253 253 253 253 252 252 252 252 252 252 252 252 252 251 251 251 252 252 252 252 252 253 253 253 254 254 254 255 255 255 256 256 256 256 257
277 276 276 275 275 274 274 273 273 272 271 270 270 269 268 268 267 267 266 265 265 265 264 264 264 263 263 262 262 261 260 260 259 258 258 257 257 256 255 255 254 254 254 254 253 253 253 253 253 252 252 252 252 252 252 252 252 251 251 251 251 251 251 251 251 251 251 251 251 251 252 252 252 252 253 253 253 254 254 254 255 255 255 256 256 256
277 276 276 276 275 274 274 273 273 272 271 271 270 269 268 268 267 266 266 265 265 265 264 264 264 263 263 263 262 261 261 260 259 259 258 257 256 256 255 254 254 253 253 253 253 252 252 252 252 252 251 251 251 251 251 251 251 251 251 251 250 250 250 250 250 250 250 251 251 251 251 251 251 252 252 252 253 253 253 254 254 254 255 255 255 255
277 277 276 276 275 274 274 273 272 272 271 270 270 269 268 268 267 266 266 265 265 264 264 264 263 263 263 262 262 261 260 260 259 258 258 257 256 256 255 254 254 253 253 252 252 252 251 251 251 251 251 251 250 250 250 250 250 250 250 250 250 250 250 250 250 250 250 250 250 250 250 251 251 251 251 252 252 253 253 253 254 254 254 255 255 255
278 277 277 276 275 274 274 273 272 272 271 270 270 269 269 268 267 267 266 265 265 264 264 263 263 263 262 262 262 261 260 260 259 258 258 257 256 255 255 254 253 253 252 252 251 251 251 250 250 250 250 250 249 249 249 249 249 249 249 249 249 249 249 249 249 249 249 249 249 250 250 250 250 251 251 251 252 252 253 253 253 254 254 254 254 254
278 278 277 276 276 275 274 273 273 272 271 271 270 270 269 268 268 267 266 266 265 265 264 264 263 263 262 262 261 261 260 260 259 258 257 257 256 255 254 253 253 252 251 251 250 250 250 249 249 249 249 249 248 248 248 248 248 248 248 248 248 248 248 248 248 248 249 249 249 249 249 250 250 250 250 251 251 252 252 252 253 253 253 254 254 254
278 278 277 277 276 275 275 274 273 272 272 271 271 270 270 269 268 268 267 266 266 265 264 264 263 263 262 262 261 261 260 259 259 258 257 256 255 254 253 253 252 251 251 250 250 249 249 249 248 248 248 248 248 248 248 248 247 247 247 247 247 248 248 248 248 248 248 248 248 248 249 249 249 250 250 250 251 251 252 252 252 253 253 253 253 253
278 278 277 277 276 276 275 275 274 273 272 272 271 271 270 269 269 268 267 267 266 265 265 264 263 263 262 261 261 260 260 259 258 257 256 255 254 254 253 252 251 251 250 249 249 249 248 248 248 248 247 247 247 247 247 247 247 247 247 247 247 247 247 247 247 247 248 248 248 248 248 249 249 249 250 250 251 251 251 252 252 252 252 253 253 253
278 278 277 276 276 276 275 275 274 274 273 272 272 271 271 270 269 268 267 267 266 265 265 264 263 262 262 261 261 260 259 258 257 256 255 254 254 253 252 251 250 250 249 249 248 248 248 247 247 247 247 247 246 246 246 246 246 246 246 246 246 246 246 247 247 247 247 247 248 248 248 248 249 249 250 250 250 251 251 251 252 252 252 252 252 253
279 278 277 276 276 275 275 275 274 274 273 273 272 272 271 270 269 268 268 267 266 265 265 264 263 262 261 261 260 259 258 257 256 255 255 254 253 252 251 251 250 249 249 248 248 248 247 247 247 246 246 246 246 246 246 246 245 245 246 246 246 246 246 246 247 247 247 247 247 248 248 248 249 249 249 250 250 250 251 251 251 252 252 252 252 252
279 279 278 277 276 276 275 274 274 274 274 273 273 272 271 270 270 269 268 267 266 265 264 263 262 262 261 260 259 259 258 257 256 255 254 253 252 252 251 250 249 249 248 248 248 247 247 246 246 246 246 245 245 245 245 245 245 245 245 245 245 246 246 246 246 246 247 247 247 248 248 248 249 249 249 250 250 250 250 251 251 251 252 252 252 252
279 279 278 278 277 276 276 275 274 274 273 273 273 272 272 271 270 269 268 267 266 265 264 263 262 261 261 260 259 258 257 256 255 254 254 253 252 251 251 250 249 248 248 247 247 247 246 246 246 245 245 245 245 245 245 245 245 245 245 245 245 245 246 246 246 246 247 247 247 248 248 248 248 249 249 249 250 250 250 251 251 251 252 252 252 252
278 278 279 279 278 278 277 276 275 274 274 273 272 272 271 271 270 269 268 267 266 265 264 263 262 261 260 260 259 258 257 256 255 254 253 253 252 251 250 249 248 248 248 247 247 246 246 246 245 245 245 245 245 245 245 245 245 245 245 245 245 245 246 246 246 246 246 247 247 247 248 248 248 249 249 249 249 250 250 250 251 251 251 252 252 252
278 278 278 279 279 278 278 277 276 275 274 273 272 272 271 271 270 269 268 267 266 265 264 263 262 261 260 260 259 258 257 256 255 254 254 253 252 251 250 249 248 248 247 247 246 246 246 245 245 245 245 245 245 245 244 244 244 245 245 245 245 245 245 246 246 246 246 247 247 247 247 248 248 248 249 249 249 250 250 250 251 251 251 252 252 252
278 278 278 278 279 279 278 278 277 276 275 274 273 272 271 270 270 269 268 268 267 266 265 264 263 261 261 260 259 258 257 257 256 255 254 253 252 251 250 249 248 247 247 247 246 246 245 245 245 245 245 245 245 244 244 244 244 244 245 245 245 245 245 245 246 246 246 246 247 247 247 248 248 248 248 249 249 249 250 250 250 251 251 251 252 252
279 279 278 278 278 278 278 278 277 277 276 275 274 272 271 270 270 269 268 268 267 266 265 263 262 261 261 260 259 258 257 256 256 255 254 253 252 251 250 249 248 247 247 246 246 246 245 245 245 245 244 244 244 244 244 244 244 244 244 244 245 245 245 245 245 246 246 246 246 247 247 247 248 248 248 249 249 249 250 250 250 251 251 251 252 252
280 279 279 278 278 278 278 278 277 277 276 275 274 273 271 270 270 269 268 268 267 266 265 263 262 262 261 260 259 258 257 256 255 254 253 252 251 251 250 249 248 247 247 246 246 245 245 245 245 244 244 244 244 244 244 244 244 244 244 244 244 245 245 245 245 246 246 246 246 247 247 247 248 248 248 249 249 249 250 250 250 251 251 251 252 252
280 280 279 279 278 278 277 277 277 277 276 275 275 273 272 271 270 269 268 268 267 266 265 264 263 262 261 260 259 258 257 255 254 253 252 252 251 250 250 249 248 247 247 246 246 245 245 244 244 244 244 244 244 244 244 244 244 244 244 244 244 244 244 245 245 245 245 246 246 246 247 247 247 248 248 249 249 249 250 250 250 251 251 252 252 252
281 281 280 279 278 278 277 277 277 277 276 276 275 274 273 271 270 269 268 268 267 266 265 264 263 262 260 259 258 257 256 255 254 253 252 251 250 250 249 249 248 247 246 246 245 244 244 244 244 244 244 243 243 243 243 243 243 244 244 244 244 244 244 245 245 245 245 246 246 246 247 247 247 248 248 249 249 249 250 250 251 251 251 252 252 253
282 281 280 279 279 278 278 277 277 277 276 276 275 274 273 272 271 270 269 268 267 266 266 264 263 262 260 259 257 256 255 254 253 253 252 251 250 250 249 248 247 247 246 245 245 244 244 244 243 243 243 243 243 243 243 243 243 243 244 244 244 244 244 245 245 245 245 246 246 246 247 247 248 248 248 249 249 250 250 251 251 251 252 252 253 253
282 281 281 280 279 279 278 277 277 277 276 276 275 274 273 272 271 270 269 268 267 266 266 265 264 262 261 259 258 256 255 254 253 252 252 251 250 250 249 248 247 246 246 245 244 244 244 244 243 243 243 243 243 243 243 243 243 244 244 244 244 244 245 245 245 245 246 246 246 247 247 248 248 249 249 249 250 250 251 251 252 252 253 253 253 254
282 282 281 281 280 279 278 278 277 277 276 276 275 274 274 273 272 270 269 268 267 266 266 265 264 263 261 260 258 257 256 255 254 253 252 251 251 250 249 248 247 247 246 245 245 245 245 245 244 244 244 244 244 244 244 244 244 244 244 245 245 245 246 246 246 246 247 247 247 248 248 248 249 249 250 250 251 251 252 252 253 253 254 254 254 255
283 282 281 281 280 279 278 278 277 277 276 276 275 274 274 273 272 271 270 269 268 267 266 265 264 263 262 260 259 258 257 256 254 254 253 252 251 250 250 249 248 248 247 247 246 246 246 246 246 245 245 245 245 245 245 245 245 245 246 246 246 246 247 247 247 247 248 248 248 249 249 250 250 250 251 251 252 252 253 253 254 254 255 255 256 256
283 282 281 281 280 279 278 278 277 277 276 275 275 274 274 273 272 271 270 269 268 267 265 264 263 262 262 260 259 258 257 256 255 254 253 252 252 251 250 250 249 249 249 248 248 248 248 248 248 247 247 247 247 246 246 246 247 247 247 247 247 248 248 248 249 249 249 250 250 250 250 251 251 251 252 252 253 253 254 254 255 255 256 256 256 257
283 282 281 281 280 279 278 278 277 277 276 276 275 275 274 273 273 272 271 270 268 267 266 264 263 262 261 260 259 258 257 256 255 254 254 253 252 252 251 251 250 250 250 250 249 249 249 249 249 249 249 249 249 248 248 248 248 248 248 249 249 249 249 250 250 250 250 251 251 251 252 252 252 253 253 253 254 254 255 255 256 256 256 257 257 257
283 282 281 281 280 279 279 278 277 277 276 276 275 275 274 274 273 272 271 270 269 268 266 265 263 262 261 260 259 258 257 256 255 254 254 253 252 252 251 251 251 250 250 250 250 250 250 250 250 250 250 250 250 250 249 249 249 249 249 249 250 250 250 251 251 251 251 252 252 252 252 253 253 253 254 254 254 255 255 256 256 256 257 257 257 257
282 282 281 281 280 279 279 278 278 277 276 276 276 275 274 274 273 273 272 271 270 269 267 266 264 263 262 261 259 258 257 256 255 254 254 253 253 252 252 251 251 250 250 250 250 250 250 250 250 250 250 250 250 250 250 250 250 249 250 250 250 250 251 251 251 251 252 252 252 252 253 253 253 253 254 254 254 255 255 255 256 256 256 257 257 257
282 282 281 281 280 280 279 279 278 277 277 276 276 275 274 274 273 273 272 271 271 270 268 267 266 264 263 262 260 259 258 257 256 255 254 254 253 253 252 252 252 251 251 250 250 250 250 250 250 250 250 250 250 250 250 250 250 250 250 250 250 250 251 251 251 251 252 252 252 252 253 253 253 253 254 254 254 255 255 255 256 256 256 256 257 257
282 282 281 281 280 280 279 279 278 278 277 276 276 275 275 274 274 273 272 272 271 270 269 268 267 265 264 263 261 260 259 258 257 256 255 255 254 254 253 253 252 252 252 251 251 251 251 251 251 251 251 251 251 251 251 250 250 250 250 250 250 250 250 251 251 251 251 252 252 252 252 253 253 253 254 254 254 255 255 255 256 256 256 257 257 257
282 282 282 281 281 280 279 279 279 278 278 277 276 276 275 274 274 273 273 272 271 271 270 269 268 267 265 264 262 261 260 259 258 258 257 256 256 255 255 254 254 253 253 253 252 252 252 252 252 252 252 252 252 252 252 252 252 251 251 251 251 251 251 251 251 252 252 252 252 252 253 253 253 254 254 254 255 255 255 256 256 256 257 257 257 257
282 282 281 281 281 280 280 280 279 279 278 278 277 276 275 275 274 273 273 272 272 271 271 270 269 268 267 265 264 263 262 261 260 259 258 258 257 256 256 255 255 255 254 254 254 254 253 253 254 254 253 254 254 254 254 254 253 253 253 253 253 253 253 252 252 252 252 253 253 253 253 254 254 254 255 255 255 256 256 256 257 257 257 257 257 257
283 282 282 281 281 280 280 280 279 279 279 278 278 277 276 276 275 274 273 273 272 272 271 271 270 270 268 268 266 265 264 262 262 261 260 259 258 258 257 257 256 256 255 255 255 255 255 255 255 255 255 255 255 255 255 255 255 254 254 254 254 254 254 253 253 253 253 253 254 254 254 254 255 255 255 255 256 256 256 256 257 257 257 257 257 257
284 283 282 281 281 280 280 279 279 279 279 278 278 278 277 277 276 275 274 274 273 273 272 272 271 271 271 270 269 268 266 265 264 262 261 260 260 259 259 258 257 257 256 256 256 256 256 256 256 256 256 256 256 256 256 256 256 255 255 255 255 255 255 255 255 254 254 255 255 255 255 255 255 256 256 256 256 256 256 256 256 257 257 257 257 257
286 285 283 282 282 281 281 280 280 280 279 279 279 279 278 277 277 276 275 275 274 273 273 273 273 272 272 272 271 270 269 267 266 264 263 262 261 261 260 259 259 258 257 257 257 257 256 256 256 256 256 256 256 256 256 256 256 256 256 256 256 256 256 256 256 256 256 256 256 256 256 256 256 256 256 256 257 256 257 257 257 257 257 257 257 257
287 286 285 284 283 282 282 281 281 280 280 280 280 279 279 278 277 277 276 276 275 274 274 273 273 273 272 272 272 271 270 269 268 267 265 264 263 262 262 261 260 259 258 258 257 257 257 257 256 256 256 256 256 256 256 256 256 256 257 257 257 257 257 257 257 257 257 257 257 257 257 257 257 257 257 257 257 257 257 257 257 257 257 257 257 257
289 288 287 286 285 284 283 282 281 281 280 280 279 279 278 278 278 277 277 277 276 275 274 273 273 272 272 272 272 272 271 270 270 268 267 266 265 264 263 262 261 260 259 259 258 258 257 257 257 257 257 257 256 257 257 257 257 257 258 258 258 258 258 258 258 258 258 258 258 258 258 258 258 258 258 258 258 258 258 258 258 257 257 257 257 258
290 290 289 288 287 285 284 282 281 280 279 279 278 278 277 277 277 277 277 277 276 276 275 274 273 273 273 273 272 272 272 272 271 270 269 268 267 266 265 264 262 262 261 260 259 259 258 258 258 258 258 258 258 258 258 258 258 258 259 259 259 259 259 259 259 259 259 259 259 259 259 259 259 259 259 258 258 258 258 258 258 258 258 258 258 258
291 291 290 289 288 286 284 282 280 278 277 275 275 274 274 275 275 275 275 275 275 275 275 275 275 275 274 274 274 274 274 273 273 272 271 270 269 267 266 265 264 264 263 262 261 261 260 260 260 259 259 259 259 259 259 259 259 259 260 260 260 260 260 260 260 260 260 260 260 260 260 260 260 260 259 259 259 259 259 259 259 259 259 259 259 259
291 291 290 289 288 286 284 282 280 277 276 274 273 272 272 272 272 272 273 273 273 274 274 275 276 276 276 276 276 276 275 275 274 274 273 272 270 270 268 267 267 266 265 265 264 263 263 262 262 261 261 261 261 261 261 261 261 261 261 261 261 261 261 261 261 261 261 261 261 261 261 261 261 261 261 261 261 261 261 261 261 261 261 261 260 260
291 291 290 289 288 287 285 283 281 279 277 275 274 273 272 271 271 271 271 271 272 272 273 274 274 275 275 275 276 276 275 275 275 274 274 273 272 271 270 269 269 268 268 267 266 266 265 265 264 264 263 263 262 263 263 263 263 263 263 263 263 263 263 263 263 263 263 263 263 263 263 263 263 263 263 263 263 263 263 263 263 263 262 262 262 262
Height
10279 10277 10274 10274 10274 10273 10271 10270 10271 10273 10274 10273 10272 10273 10276 10276 10274 10271 10269 10265 10262 10259 10259 10262 10265 10269 10271 10274 10275 10276 10277 10279 10282 10285 10289 10292 10294 10296 10298 10300 10302 10305 10307 10310 10312 10315 10317 10319 10321 10324 10326 10329 10331 10334 10336 10337 10339 10341 10343 10345 10347 10349 10351 10352 10354 10355 10357 10358 10359 10361 10362 10363 10364 10365 10366 10367 10368 10369 10371 10372 10372 10372 10373 10373 10374 10375
10264 10262 10260 10259 10259 10258 10256 10255 10256 10257 10259 10258 10257 10257 10261 10261 10260 10257 10256 10254 10251 10248 10247 10249 10252 10256 10259 10262 10263 10264 10266 10267 10269 10272 10276 10279 10282 10284 10286 10288 10291 10293 10296 10299 10301 10304 10306 10309 10311 10313 10316 10318 10321 10323 10325 10327 10329 10331 10333 10335 10337 10339 10341 10342 10344 10346 10347 10349 10351 10352 10353 10354 10356 10356 10357 10359 10360 10361 10362 10364 10364 10364 10365 10366 10366 10367
10249 10246 10244 10243 10243 10243 10242 10241 10241 10242 10244 10243 10242 10242 10244 10246 10245 10244 10242 10242 10240 10237 10235 10236 10239 10243 10246 10249 10251 10253 10254 10256 10257 10259 10262 10266 10269 10272 10274 10277 10279 10282 10284 10287 10290 10293 10296 10297 10300 10302 10305 10307 10310 10312 10315 10317 10319 10321 10323 10326 10327 10329 10331 10333 10334 10336 10338 10339 10341 10342 10344 10345 10346 10347 10349 10350 10351 10353 10354 10355 10356 10356 10357 10357 10358 10359
10234 10232 10229 10229 10229 10229 10229 10228 10228 10229 10229 10229 10229 10229 10229 10230 10230 10229 10229 10229 10228 10226 10224 10224 10226 10230 10233 10236 10239 10241 10243 10244 10245 10247 10250 10253 10257 10260 10263 10266 10267 10270 10273 10276 10279 10282 10284 10287 10289 10292 10295 10297 10300 10302 10304 10307 10309 10311 10313 10315 10317 10319 10321 10323 10325 10327 10328 10330 10332 10333 10335 10336 10337 10339 10340 10342 10343 10344 10346 10346 10347 10348 10349 10349 10350 10351
10220 10218 10216 10216 10216 10216 10216 10216 10216 10215 10215 10215 10215 10215 10215 10216 10216 10215 10215 10216 10215 10214 10212 10212 10214 10217 10220 10223 10226 10229 10231 10232 10234 10236 10238 10241 10245 10248 10251 10254 10256 10259 10262 10264 10267 10271 10274 10276 10279 10282 10284 10287 10289 10292 10294 10297 10299 10301 10303 10305 10307 10309 10311 10313 10315 10317 10319 10321 10322 10324 10326 10327 10329 10330 10331 10333 10334 10336 10337 10338 10339 10339 10341 10341 10342 10343
10207 10205 10204 10203 10203 10203 10203 10203 10203 10202 10202 10202 10202 10202 10202 10202 10202 10202 10202 10202 10201 10201 10200 10201 10202 10205 10207 10211 10214 10217 10219 10221 10223 10225 10227 10230 10233 10237 10240 10242 10246 10248 10251 10254 10257 10259 10262 10266 10268 10271 10274 10276 10279 10281 10284 10286 10289 10291 10293 10295 10297 10299 10301 10303 10305 10307 10309 10311 10313 10315 10316 10318 10319 10321 10322 10324 10326 10327 10328 10329 10330 10331 10332 10333 10334 10335
10194 10193 10192 10191 10191 10191 10192 10192 10191 10191 10191 10190 10190 10191 10191 10191 10190 10190 10189 10189 10189 10189 10189 10189 10191 10194 10196 10199 10202 10205 10208 10210 10212 10214 10217 10219 10222 10226 10229 10232 10234 10237 10240 10242 10246 10249 10252 10254 10257 10260 10263 10266 10268 10271 10273 10276 10278 10281 10282 10284 10287 10289 10291 10293 10295 10297 10299 10301 10303 10305 10307 10309 10310 10312 10314 10315 10317 10318 10319 10321 10321 10322 10324 10324 10326 10327
10183 10182 10182 10181 10180 10180 10181 10181 10181 10180 10179 10179 10179 10179 10180 10179 10179 10179 10178 10177 10177 10177 10178 10179 10181 10183 10186 10187 10191 10194 10197 10199 10202 10204 10206 10209 10212 10215 10218 10221 10224 10226 10229 10232 10235 10237 10241 10243 10246 10249 10252 10255 10257 10260 10262 10265 10267 10270 10272 10274 10276 10278 10281 10282 10285 10287 10289 10292 10294 10296 10297 10299 10301 10303 10305 10306 10308 10309 10311 10312 10313 10314 10315 10316 10317 10319
10172 10171 10171 10171 10171 10170 10171 10171 10171 10170 10169 10169 10169 10169 10169 10169 10169 10168 10168 10167 10167 10167 10168 10169 10171 10172 10175 10177 10180 10183 10186 10189 10191 10194 10196 10198 10201 10204 10207 10210 10213 10216 10219 10221 10224 10227 10229 10232 10235 10237 10241 10244 10246 10249 10252 10254 10257 10259 10261 10264 10266 10268 10270 10272 10275 10277 10280 10282 10284 10286 10288 10290 10292 10294 10296 10297 10299 10301 10302 10303 10304 10305 10307 10308 10309 10311
10163 10162 10161 10161 10161 10161 10161 10161 10161 10161 10160 10160 10159 10160 10159 10159 10159 10159 10159 10159 10159 10159 10159 10160 10161 10162 10165 10167 10171 10173 10176 10179 10181 10183 10186 10188 10191 10194 10197 10200 10202 10205 10207 10210 10213 10216 10218 10221 10224 10226 10229 10232 10235 10238 10241 10244 10246 10249 10251 10253 10256 10257 10260 10262 10266 10268 10270 10272 10275 10277 10279 10281 10282 10284 10286 10288 10290 10292 10293 10294 10296 10297 10298 10299 10301 10302
10154 10153 10152 10152 10152 10152 10152 10151 10151 10151 10151 10151 10151 10151 10151 10150 10150 10150 10151 10151 10151 10151 10151 10151 10152 10154 10156 10159 10161 10164 10167 10169 10171 10173 10176 10178 10181 10184 10187 10189 10192 10194 10197 10199 10202 10204 10207 10210 10212 10216 10218 10221 10224 10227 10231 10233 10236 10238 10241 10243 10245 10247 10250 10253 10256 10258 10261 10263 10266 10268 10270 10272 10274 10276 10277 10279 10281 10283 10284 10286 10287 10288 10289 10291 10292 10294
10146 10145 10144 10144 10144 10144 10143 10142 10142 10142 10142 10142 10142 10142 10141 10141 10142 10142 10142 10142 10142 10142 10142 10143 10144 10146 10147 10150 10152 10155 10158 10160 10162 10164 10166 10169 10172 10174 10177 10179 10182 10184 10187 10189 10191 10194 10196 10199 10202 10205 10207 10211 10214 10217 10220 10222 10225 10227 10230 10233 10236 10238 10241 10244 10246 10249 10251 10254 10256 10259 10261 10262 10265 10267 10269 10271 10272 10274 10276 10277 10279 10280 10281 10282 10284 10286
10137 10137 10136 10136 10136 10136 10134 10134 10134 10134 10134 10134 10134 10133 10133 10134 10134 10134 10134 10134 10135 10135 10135 10136 10137 10138 10139 10141 10144 10146 10149 10151 10152 10154 10157 10159 10162 10165 10167 10169 10172 10174 10177 10179 10181 10184 10186 10189 10192 10194 10197 10201 10204 10206 10209 10212 10215 10217 10221 10223 10226 10229 10231 10234 10237 10239 10242 10245 10247 10249 10252 10254 10256 10258 10260 10262 10264 10266 10267 10269 10270 10271 10273 10274 10276 10278
10129 10129 10129 10129 10128 10127 10126 10126 10126 10126 10126 10126 10126 10126 10126 10126 10126 10126 10127 10127 10127 10127 10128 10129 10129 10130 10131 10133 10135 10137 10140 10142 10144 10146 10148 10151 10153 10156 10158 10161 10162 10165 10167 10169 10172 10174 10176 10179 10182 10184 10187 10191 10194 10196 10199 10202 10205 10208 10211 10214 10216 10219 10222 10225 10227 10231 10233 10236 10238 10241 10242 10245 10247 10249 10251 10253 10255 10257 10259 10260 10262 10263 10264 10266 10268 10270
10122 10122 10122 10121 10120 10119 10119 10118 10118 10118 10118 10117 10117 10117 10118 10118 10119 10119 10119 10120 10120 10121 10121 10122 10122 10123 10124 10125 10127 10129 10131 10134 10136 10137 10140 10142 10144 10147 10150 10152 10154 10156 10159 10161 10162 10164 10167 10170 10172 10175 10178 10181 10184 10187 10189 10192 10196 10199 10202 10205 10207 10210 10213 10216 10219 10221 10224 10227 10229 10232 10234 10236 10239 10241 10243 10245 10246 10248 10250 10252 10253 10255 10256 10259 10261 10262
10115 10114 10114 10113 10112 10111 10111 10111 10111 10111 10111 10110 10110 10111 10111 10111 10111 10112 10112 10113 10113 10114 10114 10115 10116 10116 10117 10117 10119 10121 10123 10126 10127 10130 10132 10134 10136 10139 10141 10143 10146 10147 10150 10152 10154 10156 10158 10161 10163 10166 10169 10172 10174 10177 10181 10183 10186 10190 10193 10196 10199 10201 10204 10207 10209 10212 10216 10218 10221 10223 10225 10227 10230 10232 10234 10236 10238 10240 10242 10244 10245 10247 10249 10251 10252 10254
10108 10107 10106 10106 10105 10104 10104 10104 10104 10104 10104 10103 10104 10104 10104 10104 10105 10106 10106 10106 10107 10107 10108 10109 10109 10110 10110 10111 10112 10114 10116 10118 10120 10122 10124 10126 10128 10130 10133 10135 10137 10139 10141 10143 10145 10147 10149 10152 10154 10157 10160 10163 10166 10169 10171 10174 10177 10181 10184 10187 10190 10192 10196 10198 10201 10204 10207 10209 10212 10214 10217 10219 10221 10224 10226 10227 10229 10231 10233 10235 10237 10239 10241 10242 10244 10246
10101 10101 10099 10099 10097 10097 10097 10097 10097 10097 10097 10097 10097 10097 10098 10099 10099 10099 10099 10100 10101 10101 10102 10102 10103 10104 10104 10104 10105 10106 10109 10111 10112 10114 10117 10118 10119 10122 10124 10127 10129 10131 10132 10134 10136 10139 10141 10144 10146 10149 10152 10154 10157 10160 10163 10166 10169 10172 10175 10178 10181 10184 10187 10189 10192 10195 10198 10201 10204 10206 10209 10211 10213 10216 10217 10219 10221 10223 10225 10227 10229 10230 10232 10234 10236 10238
10095 10094 10093 10092 10091 10091 10091 10090 10090 10090 10091 10091 10092 10092 10092 10092 10092 10092 10093 10093 10094 10095 10096 10097 10097 10097 10097 10097 10098 10100 10102 10104 10106 10107 10109 10110 10112 10114 10116 10119 10121 10122 10124 10126 10128 10131 10133 10136 10138 10141 10144 10146 10149 10152 10155 10158 10161 10164 10167 10169 10172 10176 10178 10181 10184 10187 10190 10192 10196 10198 10201 10202 10205 10207 10209 10211 10213 10215 10217 10219 10221 10222 10224 10226 10228 10230
10088 10087 10087 10086 10086 10085 10085 10084 10084 10084 10084 10085 10086 10086 10086 10086 10086 10086 10087 10087 10088 10089 10090 10091 10091 10091 10091 10091 10092 10094 10096 10097 10098 10099 10101 10102 10104 10106 10109 10111 10113 10115 10117 10119 10121 10123 10126 10128 10131 10134 10136 10139 10141 10144 10147 10150 10153 10156 10159 10162 10164 10167 10171 10173 10176 10179 10182 10185 10187 10190 10192 10195 10197 10199 10202 10204 10206 10207 10209 10211 10213 10214 10216 10218 10220 10222
10082 10081 10080 10080 10080 10080 10079 10078 10078 10079 10079 10080 10080 10081 10080 10080 10080 10081 10081 10081 10082 10082 10083 10084 10084 10084 10085 10086 10086 10087 10089 10090 10091 10092 10094 10096 10097 10099 10101 10104 10106 10108 10110 10112 10114 10116 10119 10121 10124 10126 10129 10132 10134 10137 10140 10142 10146 10148 10151 10154 10157 10160 10163 10166 10169 10172 10174 10177 10180 10182 10185 10187 10189 10192 10194 10196 10198 10199 10201 10203 10205 10207 10209 10211 10212 10214
10076 10074 10073 10074 10074 10074 10074 10074 10074 10074 10074 10074 10075 10074 10074 10074 10074 10074 10075 10076 10076 10076 10077 10077 10078 10078 10079 10079 10080 10081 10082 10084 10085 10086 10087 10090 10091 10092 10095 10097 10099 10101 10103 10105 10107 10110 10112 10115 10117 10119 10122 10125 10127 10130 10133 10136 10139 10142 10144 10147 10151 10153 10156 10159 10162 10164 10167 10170 10172 10175 10177 10179 10182 10184 10186 10188 10190 10192 10194 10195 10197 10199 10201 10202 10204 10206
10071 10069 10067 10067 10067 10068 10068 10068 10069 10069 10069 10069 10069 10069 10069 10069 10069 10069 10069 10069 10070 10071 10071 10072 10072 10072 10073 10074 10074 10075 10076 10077 10079 10081 10082 10084 10084 10086 10089 10091 10094 10095 10097 10099 10101 10104 10106 10109 10111 10113 10116 10118 10121 10124 10126 10129 10132 10135 10138 10141 10144 10146 10149 10152 10154 10157 10160 10162 10165 10167 10170 10172 10174 10176 10179 10181 10182 10184 10186 10187 10189 10191 10193 10195 10197 10199
10067 10064 10063 10062 10061 10062 10062 10062 10063 10063 10064 10064 10064 10064 10064 10063 10063 10063 10063 10064 10064 10065 10066 10066 10067 10067 10067 10068 10069 10070 10071 10072 10073 10075 10077 10078 10079 10081 10083 10086 10088 10089 10091 10092 10095 10098 10101 10103 10105 10107 10110 10112 10115 10117 10121 10123 10126 10129 10131 10134 10137 10140 10142 10145 10147 10150 10152 10155 10157 10160 10162 10164 10166 10169 10171 10172 10174 10176 10178 10180 10182 10184 10186 10187 10189 10191
10062 10061 10059 10057 10056 10056 10056 10057 10057 10058 10059 10059 10059 10059 10059 10058 10057 10057 10057 10057 10059 10059 10061 10061 10062 10062 10062 10063 10064 10065 10066 10067 10069 10070 10071 10072 10074 10076 10078 10080 10082 10084 10085 10087 10090 10092 10095 10097 10099 10102 10104 10107 10109 10112 10114 10117 10119 10122 10125 10127 10130 10133 10136 10138 10141 10143 10146 10148 10150 10152 10154 10157 10159 10161 10163 10165 10167 10168 10170 10172 10174 10176 10178 10180 10182 10184
10058 10057 10055 10054 10052 10052 10051 10051 10052 10052 10053 10054 10054 10054 10054 10054 10053 10052 10052 10052 10053 10054 10056 10056 10057 10057 10057 10059 10059 10060 10061 10062 10064 10066 10066 10068 10069 10071 10072 10075 10077 10079 10080 10082 10085 10087 10090 10092 10094 10097 10099 10101 10103 10106 10108 10111 10113 10116 10118 10121 10124 10126 10129 10131 10134 10136 10138 10141 10142 10145 10147 10149 10151 10153 10155 10157 10159 10161 10162 10164 10166 10168 10170 10172 10174 10176
10053 10052 10051 10050 10049 10047 10047 10046 10047 10047 10047 10048 10049 10049 10049 10049 10049 10048 10047 10047 10049 10050 10051 10051 10052 10052 10053 10054 10055 10056 10057 10058 10059 10061 10062 10063 10065 10066 10067 10070 10072 10074 10076 10077 10080 10082 10085 10087 10089 10091 10094 10096 10097 10100 10102 10105 10107 10109 10112 10114 10117 10119 10122 10124 10127 10129 10131 10133 10135 10137 10139 10141 10144 10146 10147 10149 10151 10153 10155 10157 10159 10161 10162 10164 10166 10168
10048 10047 10047 10046 10045 10044 10044 10042 10042 10042 10042 10043 10044 10044 10044 10044 10044 10044 10043 10043 10044 10045 10046 10046 10047 10048 10049 10049 10051 10051 10052 10054 10054 10056 10057 10059 10060 10061 10062 10065 10067 10069 10071 10073 10076 10078 10081 10082 10084 10086 10087 10090 10092 10094 10096 10099 10101 10103 10106 10108 10111 10112 10115 10117 10119 10122 10124 10126 10128 10130 10132 10134 10136 10138 10140 10142 10144 10146 10147 10149 10151 10152 10154 10156 10158 10161
10043 10042 10042 10041 10041 10040 10040 10039 10039 10039 10039 10039 10039 10040 10041 10040 10040 10039 10039 10039 10040 10041 10041 10042 10042 10044 10044 10046 10046 10047 10048 10049 10050 10051 10053 10054 10055 10056 10058 10061 10063 10065 10067 10069 10071 10073 10076 10076 10078 10080 10082 10084 10086 10088 10090 10092 10095 10097 10099 10101 10104 10106 10108 10111 10112 10114 10116 10119 10121 10122 10124 10126 10128 10130 10132 10134 10136 10137 10139 10141 10142 10144 10146 10149 10151 10152
10039 10038 10037 10037 10036 10036 10036 10035 10035 10035 10035 10035 10036 10036 10037 10036 10036 10036 10035 10036 10036 10036 10037 10037 10039 10040 10041 10041 10042 10042 10043 10044 10045 10047 10049 10050 10050 10051 10054 10057 10058 10060 10062 10064 10066 10068 10069 10071 10072 10074 10076 10078 10081 10082 10084 10086 10089 10091 10092 10095 10097 10099 10101 10103 10106 10107 10109 10111 10113 10115 10117 10119 10121 10122 10124 10126 10128 10130 10131 10133 10135 10137 10139 10141 10143 10145
10034 10034 10033 10032 10032 10032 10031 10031 10030 10030 10030 10030 10031 10031 10032 10032 10032 10031 10032 10032 10032 10032 10033 10034 10035 10036 10037 10037 10038 10038 10039 10040 10041 10043 10044 10045 10046 10047 10050 10052 10054 10055 10057 10059 10061 10062 10063 10065 10067 10069 10071 10073 10074 10076 10078 10081 10082 10084 10086 10088 10090 10092 10094 10096 10098 10101 10102 10104 10106 10108 10110 10112 10114 10116 10117 10119 10121 10122 10124 10125 10127 10129 10131 10133 10136 10137
10030 10029 10029 10029 10028 10027 10027 10027 10026 10026 10026 10026 10026 10026 10027 10027 10027 10028 10028 10028 10029 10029 10029 10030 10031 10032 10032 10033 10034 10034 10035 10036 10037 10039 10040 10041 10042 10044 10046 10047 10049 10051 10052 10054 10056 10057 10058 10060 10062 10064 10066 10067 10069 10071 10072 10075 10077 10078 10080 10082 10084 10086 10087 10089 10091 10094 10096 10097 10099 10101 10103 10105 10107 10109 10110 10112 10113 10115 10116 10117 10119 10121 10124 10126 10128 10129
10026 10026 10025 10024 10024 10024 10023 10023 10022 10022 10022 10022 10022 10022 10022 10022 10023 10024 10024 10024 10025 10026 10026 10027 10027 10028 10029 10029 10030 10031 10031 10032 10034 10035 10036 10037 10038 10039 10041 10043 10044 10046 10047 10049 10051 10052 10054 10055 10057 10059 10061 10062 10064 10066 10067 10069 10071 10072 10074 10076 10077 10079 10081 10083 10086 10087 10089 10091 10093 10095 10097 10099 10100 10102 10103 10105 10106 10107 10109 10111 10112 10114 10116 10119 10121 10122
10022 10022 10021 10021 10021 10020 10019 10019 10019 10019 10018 10018 10018 10018 10019 10019 10019 10019 10020 10021 10021 10022 10022 10023 10024 10024 10025 10026 10026 10027 10028 10029 10030 10031 10032 10034 10034 10036 10037 10039 10040 10041 10043 10044 10046 10047 10049 10050 10052 10054 10056 10057 10059 10061 10062 10064 10066 10067 10069 10071 10072 10073 10075 10077 10079 10081 10083 10085 10087 10089 10090 10092 10093 10095 10096 10098 10099 10101 10102 10103 10105 10107 10109 10111 10112 10114
10019 10018 10017 10017 10017 10016 10016 10016 10015 10015 10015 10015 10015 10015 10015 10015 10015 10016 10016 10017 10017 10017 10018 10019 10019 10021 10021 10022 10022 10023 10024 10026 10027 10027 10029 10029 10031 10032 10033 10034 10036 10037 10039 10040 10041 10043 10044 10046 10047 10049 10051 10052 10054 10056 10057 10059 10061 10062 10064 10066 10067 10068 10070 10072 10074 10076 10077 10079 10081 10082 10084 10085 10087 10088 10089 10091 10092 10094 10095 10096 10097 10099 10101 10103 10105 10107
10015 10015 10014 10014 10013 10013 10012 10012 10012 10012 10011 10011 10011 10011 10011 10012 10012 10012 10012 10012 10013 10014 10014 10015 10016 10016 10017 10018 10019 10020 10021 10022 10022 10024 10024 10025 10026 10027 10029 10030 10031 10033 10034 10036 10037 10039 10040 10041 10042 10044 10046 10047 10049 10050 10052 10054 10056 10057 10059 10060 10061 10062 10064 10066 10068 10070 10071 10073 10074 10076 10077 10079 10080 10081 10082 10084 10085 10086 10087 10089 10091 10092 10094 10095 10097 10099
10012 10011 10011 10011 10010 10009 10009 10009 10009 10008 10008 10008 10008 10008 10008 10008 10008 10008 10009 10009 10009 10010 10011 10011 10012 10012 10013 10014 10015 10016 10017 10018 10019 10019 10020 10021 10022 10024 10024 10026 10027 10029 10030 10031 10032 10034 10035 10036 10038 10039 10041 10042 10043 10044 10046 10049 10051 10052 10053 10054 10056 10057 10059 10061 10062 10064 10065 10066 10067 10069 10070 10071 10073 10074 10075 10076 10077 10079 10080 10081 10082 10084 10086 10087 10089 10091
10009 10008 10007 10007 10007 10006 10006 10006 10006 10005 10005 10005 10005 10005 10005 10005 10005 10005 10005 10005 10006 10006 10007 10007 10008 10009 10009 10011 10011 10012 10013 10014 10015 10016 10016 10017 10018 10019 10021 10022 10023 10024 10025 10026 10027 10029 10031 10032 10032 10034 10035 10036 10037 10039 10041 10042 10044 10046 10047 10048 10050 10051 10052 10054 10056 10057 10058 10059 10061 10061 10063 10064 10066 10067 10067 10069 10070 10071 10072 10074 10075 10076 10077 10079 10081 10082
10006 10005 10004 10004 10004 10003 10003 10002 10002 10002 10002 10002 10002 10002 10002 10002 10002 10002 10002 10002 10002 10002 10003 10004 10004 10005 10006 10007 10007 10008 10009 10010 10011 10012 10012 10013 10014 10015 10016 10017 10019 10019 10021 10022 10023 10024 10026 10026 10027 10028 10029 10030 10031 10033 10034 10036 10038 10039 10041 10042 10044 10045 10046 10047 10049 10050 10051 10052 10053 10054 10056 10057 10058 10059 10060 10061 10062 10064 10065 10066 10067 10069 10070 10071 10072 10074
10002 10002 10002 10001 10001 10001 10000 9999 9999 9999 9999 9999 9999 9999 9999 9999 9999 9999 9999 9999 9999 9999 9999 10000 10001 10001 10002 10003 10004 10005 10006 10006 10007 10008 10009 10010 10011 10011 10012 10013 10014 10016 10017 10017 10019 10019 10021 10021 10022 10022 10024 10025 10026 10027 10029 10030 10032 10033 10035 10036 10037 10038 10039 10041 10042 10043 10044 10045 10046 10047 10048 10049 10051 10052 10053 10054 10056 10057 10057 10059 10060 10061 10062 10064 10065 10066
10000 9999 9999 9999 9998 9997 9997 9997 9996 9996 9996 9996 9996 9996 9996 9996 9996 9996 9996 9996 9996 9996 9996 9997 9997 9998 9999 9999 10000 10001 10002 10003 10004 10005 10006 10006 10007 10008 10009 10009 10011 10012 10012 10014 10014 10015 10016 10016 10017 10017 10018 10019 10021 10022 10023 10024 10026 10027 10029 10030 10031 10031 10032 10034 10036 10036 10037 10038 10039 10040 10041 10042 10044 10045 10046 10047 10049 10050 10051 10052 10053 10054 10055 10056 10057 10058
9997 9997 9996 9996 9996 9995 9994 9994 9994 9994 9993 9993 9993 9993 9993 9993 9993 9993 9993 9993 9993 9993 9993 9993 9994 9994 9995 9996 9997 9997 9999 10000 10001 10001 10002 10002 10004 10004 10005 10006 10007 10008 10009 10009 10010 10011 10011 10011 10012 10012 10014 10014 10016 10017 10017 10019 10020 10021 10022 10023 10024 10025 10027 10028 10029 10030 10031 10032 10032 10034 10035 10036 10037 10038 10039 10041 10042 10043 10044 10046 10046 10047 10047 10049 10049 10050
9995 9994 9994 9994 9993 9992 9992 9992 9992 9991 9991 9991 9991 9991 9991 9991 9991 9991 9991 9991 9991 9990 9990 9990 9991 9991 9991 9992 9993 9994 9996 9996 9997 9998 9999 9999 10000 10001 10002 10002 10003 10004 10005 10006 10006 10006 10007 10007 10007 10008 10009 10010 10011 10012 10012 10013 10014 10015 10016 10017 10018 10019 10020 10021 10022 10024 10025 10026 10026 10027 10029 10030 10031 10032 10034 10035 10036 10037 10038 10039 10039 10039 10040 10041 10042 10042
9992 9992 9992 9991 9991 9991 9990 9990 9989 9989 9989 9988 9988 9988 9987 9987 9987 9987 9987 9987 9987 9987 9987 9987 9987 9987 9987 9988 9989 9991 9992 9992 9994 9994 9995 9996 9996 9997 9998 9999 9999 10000 10001 10002 10002 10002 10002 10003 10003 10004 10004 10005 10006 10006 10007 10007 10008 10009 10010 10011 10012 10013 10013 10014 10016 10017 10019 10019 10021 10021 10022 10024 10025 10026 10028 10029 10030 10031 10031 10032 10032 10032 10033 10034 10034 10034
9990 9990 9989 9989 9989 9989 9988 9987 9987 9987 9987 9986 9986 9986 9986 9985 9985 9985 9985 9985 9985 9985 9985 9984 9984 9984 9984 9985 9986 9987 9988 9989 9990 9991 9991 9992 9993 9994 9994 9995 9996 9996 9997 9997 9997 9998 9999 9999 9999 9999 10000 10001 10001 10001 10001 10001 10002 10003 10004 10005 10006 10007 10007 10008 10010 10011 10012 10013 10014 10015 10016 10017 10019 10021 10021 10022 10023 10024 10024 10025 10025 10026 10026 10026 10026 10026
9987 9987 9987 9987 9987 9986 9986 9986 9986 9985 9984 9984 9984 9984 9983 9983 9982 9982 9982 9982 9982 9982 9982 9982 9982 9981 9981 9982 9982 9983 9984 9985 9986 9987 9987 9988 9989 9990 9991 9991 9991 9992 9992 9993 9993 9994 9994 9994 9994 9995 9996 9996 9996 9996 9996 9996 9997 9997 9999 10000 10001 10002 10002 10003 10004 10005 10006 10007 10008 10009 10010 10012 10013 10014 10014 10015 10016 10017 10017 10017 10018 10018 10017 10018 10018 10019
9984 9984 9984 9984 9984 9984 9984 9984 9984 9983 9982 9982 9982 9981 9981 9981 9980 9980 9979 9979 9979 9979 9979 9979 9979 9979 9979 9979 9979 9980 9981 9981 9982 9983 9984 9984 9985 9986 9986 9987 9987 9987 9988 9989 9989 9989 9989 9989 9990 9991 9991 9991 9991 9991 9991 9991 9992 9992 9993 9994 9996 9997 9997 9997 9998 9999 10000 10001 10002 10002 10004 10006 10006 10007 10007 10009 10009 10010 10010 10011 10011 10010 10010 10010 10011 10011
9982 9982 9982 9982 9982 9982 9982 9982 9981 9981 9981 9980 9980 9979 9979 9978 9978 9977 9977 9977 9977 9976 9976 9976 9976 9976 9976 9976 9976 9977 9977 9977 9978 9979 9980 9981 9981 9982 9982 9982 9983 9983 9984 9984 9984 9984 9985 9985 9986 9986 9986 9986 9986 9986 9986 9987 9987 9988 9989 9990 9991 9991 9991 9992 9992 9993 9994 9995 9996 9996 9997 9999 10000 10001 10001 10002 10002 10002 10002 10002 10002 10002 10003 10003 10003 10004
9980 9979 9979 9979 9979 9979 9979 9979 9979 9979 9979 9978 9977 9977 9977 9976 9976 9976 9975 9974 9974 9974 9974 9973 9973 9973 9973 9973 9974 9974 9974 9974 9975 9976 9976 9977 9977 9977 9978 9978 9979 9979 9979 9980 9980 9980 9981 9981 9981 9981 9981 9981 9981 9981 9981 9982 9982 9983 9984 9985 9985 9986 9986 9986 9987 9987 9988 9989 9990 9991 9992 9992 9993 9994 9994 9995 9995 9995 9996 9996 9996 9996 9996 9996 9997 9997
9977 9977 9977 9976 9976 9976 9976 9976 9976 9976 9976 9976 9976 9975 9975 9974 9974 9973 9973 9972 9972 9972 9971 9971 9971 9971 9971 9971 9971 9971 9971 9971 9971 9972 9972 9973 9973 9974 9974 9974 9974 9975 9976 9976 9976 9976 9976 9976 9976 9976 9976 9976 9976 9976 9976 9977 9978 9979 9979 9979 9979 9980 9980 9980 9981 9982 9982 9983 9984 9984 9986 9986 9986 9987 9987 9988 9988 9988 9989 9989 9988 9988 9989 9989 9989 9990
9975 9974 9974 9974 9974 9974 9974 9973 9973 9973 9973 9973 9973 9972 9972 9972 9972 9971 9971 9971 9970 9970 9969 9969 9969 9968 9968 9968 9968 9968 9968 9968 9968 9969 9969 9969 9969 9970 9970 9970 9971 9971 9971 9971 9972 9972 9972 9972 9972 9971 9971 9971 9971 9971 9972 9972 9972 9973 9974 9974 9974 9974 9974 9974 9975 9976 9977 9977 9978 9979 9979 9979 9979 9980 9981 9981 9981 9982 9982 9981 9981 9981 9981 9981 9982 9982